[[{"header":{"parameterUnit":"m.s-1","parameterCategory":1,"la1":30.2991,"la2":30.254,"lo1":-89.0895,"lo2":-89.0444,"dy":0.0017,"dx":0.0017,"nx":28,"ny":28,"refTime":"2025-11-08T03:00:00:Z","depth":0,"parameterNumber":2,"parameterNumberName":"U-component_of_WINDS"},"data":[0,0,0,0,0,0,0,0,0,0,0,0,0,0,0,0,0,0,0,0,0,0,0,0,0,0,0,0,0,0,0,0,0,0,0,0,0,0,0,0,0,0,0,0,0,0,0,0,0,0,0,0,0,0,0,0,0,0,-0.0309,-0.0307,0,-0.0158,-0.0157,-0.0155,-0.0116,-0.0117,-0.0118,-0.0119,0.0039,0.0044,0.0049,0,0,0,0,0,0,0,0,0,0,0,0,0,-0.0558,-0.0554,-0.0309,-0.0307,-0.0305,-0.0159,-0.0157,-0.0155,-0.0116,-0.0117,-0.0118,-0.0119,0.0037,0.0043,0.0049,0,0,0,0,0,0,0,0,0,0,0,0,0,-0.0433,-0.0552,-0.0309,-0.0268,-0.0263,-0.0159,-0.0157,-0.0154,-0.0115,-0.0117,-0.0118,-0.012,0.0035,0.0043,0.005,0.0125,0,0,0.0073,0.0077,0,0,0,0,0,0,0,0,-0.044,-0.0424,-0.0276,-0.0271,-0.0265,-0.0157,-0.0187,-0.006,-0.0115,-0.0171,-0.0119,-0.012,-0.0025,-0.0013,0.0019,0.0132,0.0139,0.0074,0.0079,0.0082,0.0084,0,0,0,0,0,0,0,-0.0449,-0.043,-0.0249,-0.0274,-0.0267,-0.0256,-0.024,-0.0163,-0.0092,-0.0167,-0.0163,-0.0146,-0.0022,0.0011,0.0023,0.0141,0.0074,0.0081,0.0085,0.0088,0.0328,0.0329,0,0,0,0,0,0,-0.0465,-0.0438,-0.0254,-0.0245,-0.0358,-0.025,-0.0232,-0.019,-0.0093,-0.0079,-0.0145,-0.0145,-0.0001,0.0014,0.0028,0.0126,0.0082,0.0089,0.0093,0.0326,0.0328,0.033,0,0,0,0,0,0,-0.0471,-0.0449,-0.026,-0.034,-0.0315,-0.0244,-0.0198,-0.0187,-0.0153,-0.0077,-0.0064,-0.0124,-0.0001,0.0018,0.0101,0.0132,0.0092,0.0099,0.0324,0.0326,0.0329,0.0318,0,0,0,0,0,0,-0.0478,-0.0451,-0.0423,-0.034,-0.0311,-0.0191,-0.0196,-0.0183,-0.014,-0.0139,-0.0053,-0.0041,-0.0001,0.009,0.0109,0.0141,0.0105,0.0321,0.0325,0.0328,0.0316,0.032,0.0324,0,0,0,0,0,-0.0487,-0.0432,-0.0422,-0.04,-0.0275,-0.019,-0.0173,-0.013,-0.0138,-0.0108,-0.0059,-0.0043,0.0124,0.0098,0.012,0.0155,0.032,0.0324,0.0328,0.0315,0.032,0.0324,0,0,0,0,0,0,-0.0513,-0.0421,-0.0408,-0.0325,-0.0266,-0.0183,-0.0144,-0.0126,-0.0062,-0.0063,-0.0011,0.0008,0.0089,0.013,0.0099,0.0234,0.0222,0.0231,0.0205,0.021,0.0214,0.0204,0.0111,0,0,0,0,0,-0.0509,-0.0449,-0.0371,-0.0305,-0.0276,-0.0216,-0.0177,-0.0149,-0.0084,-0.0058,-0.0003,0.006,0.0127,0.017,0.0236,0.0321,0.0343,0.0357,0.036,0.0363,0.0371,0.0423,0.0431,0.0343,0.0343,0.0343,0,0,-0.05,-0.0443,-0.0407,-0.0309,-0.0259,-0.0196,-0.0194,-0.0129,-0.008,-0.0048,0.0035,0.0077,0.0151,0.0237,0.0277,0.0274,0.0399,0.0368,0.037,0.0377,0.0428,0.0436,0.0443,0.0346,0.0346,0.0345,0,0,-0.0451,-0.0403,-0.0341,-0.0292,-0.0217,-0.0177,-0.0162,-0.0082,-0.0052,0.0031,0.0057,0.0116,0.0229,0.0282,0.0324,0.0393,0.0412,0.0413,0.0434,0.0484,0.0491,0.0497,0.0526,0.0535,0.042,0.042,0.042,0,-0.0449,-0.0354,-0.0311,-0.0246,-0.0202,-0.0171,-0.0106,-0.006,0.0032,0.0063,0.0056,0.0202,0.0253,0.0353,0.037,0.0402,0.0423,0.0405,0.0486,0.0493,0.05,0.0528,0.0538,0.042,0.042,0.042,0.042,0,-0.0353,-0.0288,-0.0247,-0.0158,-0.011,-0.0046,0.0009,0.0053,0.0076,0.0118,0.0204,0.0267,0.0347,0.0372,0.0396,0.0477,0.0473,0.0475,0.0465,0.0507,0.0535,0.0546,0.042,0.042,0.042,0.042,0,0,-0.0314,-0.0203,-0.0188,-0.0146,-0.0062,-0.0009,0.0057,0.0135,0.0174,0.0236,0.0296,0.0392,0.0395,0.0442,0.0472,0.0516,0.0572,0.0514,0.0517,0.0526,0.0669,0.0669,0.0681,0.0583,0.0585,0.0587,0.0664,0,-0.0252,-0.0132,-0.0091,0.0009,0.0072,0.0102,0.0161,0.022,0.026,0.0321,0.0366,0.0435,0.0432,0.0461,0.0505,0.0555,0.0602,0.055,0.0642,0.0645,0.0627,0.0694,0.0695,0.0765,0.0675,0.0676,0.0678,0,-0.0162,-0.0098,0.0008,0.0087,0.0115,0.0167,0.0243,0.03,0.0368,0.0395,0.0448,0.0475,0.0549,0.0531,0.0635,0.0599,0.0639,0.0669,0.0673,0.0687,0.0667,0.0714,0.0788,0.08,0.0694,0.0693,0.0692,0,-0.014,-0.0027,0.0052,0.0086,0.0179,0.0216,0.0257,0.0324,0.0369,0.0435,0.0466,0.054,0.0581,0.0639,0.0687,0.0669,0.0788,0.0773,0.0815,0.0814,0.0841,0.084,0.0927,0.086,0.086,0.086,0.0859,0,-0.0072,-0.0007,0.0064,0.0113,0.0187,0.0233,0.0306,0.0349,0.0409,0.0468,0.0498,0.0553,0.0611,0.0674,0.0711,0.0794,0.0812,0.0837,0.0848,0.0837,0.0835,0.0867,0.0865,0.0862,0.0862,0.0861,0.0861,0,-0.0033,0.0016,0.0105,0.0186,0.0208,0.026,0.033,0.038,0.0421,0.0496,0.0517,0.0582,0.0659,0.0711,0.0809,0.0834,0.0925,0.0932,0.0902,0.0908,0.0948,0.0945,0.1062,0.1082,0.0998,0.0998,0.0999,0,0.0009,0.006,0.0146,0.0188,0.0229,0.0295,0.0341,0.0389,0.0436,0.0519,0.056,0.0638,0.0704,0.0826,0.0883,0.0959,0.0971,0.1007,0.0983,0.0972,0.0977,0.0975,0.0982,0.1012,0.1012,0.1013,0.1013,0,0.008,0.0102,0.0167,0.0241,0.0295,0.0356,0.0417,0.045,0.0509,0.0561,0.0639,0.069,0.079,0.0869,0.0951,0.0995,0.1016,0.102,0.1034,0.1027,0.1009,0.1023,0.0917,0.1018,0.1017,0.1017,0.1017,0.1017,0.0125,0.0172,0.0241,0.0314,0.0364,0.0421,0.0473,0.0521,0.0586,0.0672,0.0696,0.0778,0.0848,0.096,0.1005,0.1072,0.1069,0.1089,0.1095,0.11,0.1103,0.0994,0.1087,0.1087,0.1087,0.1087,0.1087,0,0.0201,0.0246,0.0312,0.0397,0.0454,0.0466,0.0534,0.0583,0.0655,0.0717,0.0781,0.0873,0.095,0.1013,0.1093,0.1135,0.1147,0.1155,0.1155,0.1165,0.1098,0.108,0.1144,0.1144,0.1144,0.1144,0.1144,0.1144,0.0247,0.033,0.036,0.0469,0.0515,0.0596,0.0634,0.0688,0.0739,0.084,0.0903,0.0943,0.1008,0.1093,0.1165,0.1182,0.1212,0.1219,0.1238,0.1176,0.1169,0.1163,0.1147,0.1224,0.1224,0.13,0.1301,0.1301]},{"header":{"parameterUnit":"m.s-1","parameterCategory":1,"la1":30.2991,"la2":30.254,"lo1":-89.0895,"lo2":-89.0444,"dy":0.0017,"dx":0.0017,"nx":28,"ny":28,"refTime":"2025-11-08T03:00:00:Z","depth":0,"parameterNumber":3,"parameterNumberName":"V-component_of_WINDS"},"data":[0,0,0,0,0,0,0,0,0,0,0,0,0,0,0,0,0,0,0,0,0,0,0,0,0,0,0,0,0,0,0,0,0,0,0,0,0,0,0,0,0,0,0,0,0,0,0,0,0,0,0,0,0,0,0,0,0,0,2.5263,2.5264,0,2.5385,2.5386,2.5387,2.5369,2.5367,2.5365,2.5363,2.5484,2.5489,2.5495,0,0,0,0,0,0,0,0,0,0,0,0,0,2.5013,2.5018,2.5263,2.5265,2.5266,2.5384,2.5386,2.5388,2.5369,2.5367,2.5364,2.5362,2.5483,2.5489,2.5495,0,0,0,0,0,0,0,0,0,0,0,0,0,2.5127,2.5019,2.5263,2.5271,2.5273,2.5384,2.5386,2.5388,2.537,2.5367,2.5364,2.5361,2.5481,2.5488,2.5496,2.5605,0,0,2.5519,2.5523,0,0,0,0,0,0,0,0,2.512,2.5136,2.5269,2.5271,2.5273,2.5359,2.5343,2.5461,2.5371,2.5333,2.5363,2.5359,2.5445,2.5455,2.5485,2.5611,2.5616,2.552,2.5525,2.5528,2.553,0,0,0,0,0,0,0,2.5113,2.5131,2.5311,2.527,2.5273,2.5268,2.5281,2.5365,2.5405,2.5336,2.5335,2.535,2.5446,2.5477,2.5487,2.5618,2.552,2.5527,2.5531,2.5534,2.5843,2.5846,0,0,0,0,0,0,2.5103,2.5124,2.5307,2.5315,2.5188,2.5275,2.529,2.5334,2.5404,2.5411,2.5352,2.5349,2.5466,2.5479,2.5492,2.5628,2.5528,2.5535,2.554,2.5839,2.5844,2.5847,0,0,0,0,0,0,2.5097,2.5119,2.5302,2.5219,2.5242,2.5283,2.5333,2.5338,2.537,2.5416,2.5423,2.5378,2.5464,2.5481,2.5578,2.5631,2.5539,2.5546,2.5835,2.5841,2.5845,2.5898,0,0,0,0,0,0,2.509,2.5117,2.516,2.522,2.5247,2.5387,2.5336,2.5343,2.5384,2.538,2.5442,2.5449,2.5463,2.5567,2.5586,2.564,2.5552,2.5831,2.5838,2.5844,2.5892,2.5904,2.5915,0,0,0,0,0,2.5081,2.5168,2.5162,2.5184,2.5301,2.539,2.5405,2.542,2.5388,2.5431,2.5461,2.5447,2.5622,2.5577,2.5598,2.5656,2.5827,2.5836,2.5843,2.5886,2.5902,2.5915,0,0,0,0,0,0,2.5111,2.5176,2.517,2.5279,2.533,2.5387,2.5442,2.5436,2.5496,2.5489,2.5504,2.5518,2.5618,2.5645,2.5594,2.5767,2.572,2.5733,2.5745,2.5761,2.5772,2.5765,2.5558,0,0,0,0,0,2.513,2.5199,2.5251,2.5342,2.5368,2.5401,2.544,2.5448,2.55,2.5521,2.5558,2.5609,2.5675,2.5719,2.5782,2.5894,2.5909,2.5945,2.5956,2.5966,2.5978,2.6043,2.606,2.5874,2.5874,2.5874,0,0,2.5171,2.5215,2.5257,2.535,2.539,2.546,2.5419,2.5494,2.5547,2.5532,2.5628,2.5656,2.5714,2.582,2.5869,2.5847,2.6032,2.5976,2.5983,2.599,2.6053,2.607,2.6086,2.5879,2.5878,2.5877,0,0,2.5282,2.532,2.5403,2.5444,2.5506,2.5527,2.5547,2.5606,2.5626,2.5722,2.5713,2.5775,2.5888,2.5931,2.5967,2.6096,2.6087,2.6116,2.6179,2.6242,2.6257,2.627,2.632,2.6337,2.6127,2.6127,2.6127,0,2.5324,2.5431,2.5445,2.5524,2.5566,2.5556,2.564,2.5679,2.5758,2.5787,2.5761,2.5906,2.5943,2.6062,2.6093,2.6122,2.6146,2.6111,2.6254,2.6267,2.6279,2.6327,2.6345,2.613,2.613,2.613,2.6129,0,2.5482,2.5556,2.5615,2.5695,2.5742,2.5823,2.5849,2.5896,2.5899,2.5923,2.6022,2.6067,2.6142,2.6169,2.6171,2.6288,2.6273,2.625,2.6204,2.6301,2.6346,2.6364,2.6135,2.6134,2.6133,2.6132,0,0,2.5616,2.5704,2.5725,2.5763,2.583,2.5888,2.5968,2.6042,2.6084,2.6138,2.6207,2.6304,2.6284,2.6326,2.6332,2.6387,2.6491,2.6358,2.636,2.6385,2.6627,2.6647,2.6667,2.6484,2.6487,2.649,2.6623,0,2.5737,2.5881,2.5897,2.6025,2.6095,2.6088,2.6158,2.6207,2.6232,2.6295,2.632,2.6391,2.6357,2.6383,2.6437,2.6467,2.6541,2.6457,2.655,2.6553,2.654,2.669,2.6711,2.6835,2.664,2.6643,2.6645,0,2.5897,2.5959,2.6096,2.6157,2.6187,2.625,2.6321,2.638,2.6436,2.645,2.6498,2.6498,2.6581,2.653,2.6646,2.6589,2.6627,2.6648,2.6653,2.6665,2.6608,2.671,2.6874,2.6894,2.6672,2.667,2.6668,0,2.5987,2.6103,2.6201,2.6233,2.6305,2.635,2.6382,2.6435,2.648,2.6541,2.657,2.6639,2.6677,2.6731,2.675,2.671,2.6867,2.6816,2.6883,2.6882,2.6919,2.6917,2.7095,2.6937,2.6936,2.6936,2.6936,0,2.6122,2.6207,2.6243,2.6304,2.6399,2.6415,2.6508,2.6538,2.6586,2.6652,2.6647,2.6709,2.6729,2.6795,2.681,2.6906,2.6922,2.6937,2.6941,2.694,2.6939,2.6968,2.6962,2.6941,2.694,2.6939,2.6938,0,2.624,2.6267,2.6374,2.6435,2.6452,2.652,2.6571,2.663,2.6653,2.6737,2.6758,2.6795,2.6872,2.6896,2.6988,2.6998,2.7112,2.7105,2.7094,2.7096,2.7163,2.7158,2.7369,2.74,2.7217,2.7219,2.722,0,2.6327,2.6392,2.6461,2.6506,2.654,2.6612,2.6658,2.6676,2.6724,2.6794,2.6845,2.6922,2.6985,2.7109,2.7144,2.7215,2.7213,2.7282,2.7223,2.7222,2.7219,2.7217,2.7225,2.7294,2.7296,2.7297,2.7299,0,2.6479,2.649,2.6557,2.6631,2.6686,2.6744,2.68,2.6836,2.6863,2.6917,2.6997,2.7046,2.7142,2.7219,2.7292,2.7324,2.7317,2.7316,2.7337,2.7339,2.7331,2.734,2.7129,2.7312,2.7311,2.731,2.7309,2.7309,2.6587,2.6646,2.6705,2.6781,2.6825,2.6878,2.6937,2.6969,2.7036,2.7117,2.7123,2.721,2.7266,2.7363,2.7399,2.7468,2.7448,2.7476,2.7484,2.7492,2.7499,2.7317,2.748,2.748,2.748,2.7479,2.7479,0,2.6743,2.6781,2.685,2.693,2.699,2.6978,2.7039,2.709,2.7168,2.7221,2.7284,2.7377,2.7452,2.7493,2.7568,2.7616,2.7615,2.7635,2.7634,2.7642,2.751,2.7488,2.7635,2.7635,2.7635,2.7635,2.7635,2.7635,2.6832,2.6933,2.6951,2.7074,2.711,2.7198,2.7235,2.7283,2.7326,2.7431,2.7495,2.7521,2.757,2.7649,2.7718,2.7728,2.7757,2.7781,2.779,2.7667,2.7651,2.7636,2.7615,2.7786,2.7786,2.7916,2.7917,2.7918]}]]